[[{"header":{"parameterUnit":"m.s-1","parameterCategory":1,"la1":30.2992,"la2":30.254,"lo1":-89.0895,"lo2":-89.0443,"dy":0.0025,"dx":0.0025,"nx":19,"ny":19,"refTime":"2026-05-21T09:00:00:Z","depth":0,"parameterNumber":2,"parameterNumberName":"U-component_of_WINDS"},"data":[0,0,0,-2.2596,-2.2603,-2.2912,-2.2913,-2.3304,-2.3307,0,0,0,0,0,0,0,0,0,0,0,-2.2497,-2.2499,-2.2596,-2.2603,-2.2912,-2.2913,-2.3303,-2.3307,0,0,0,0,0,0,0,0,0,0,0,-2.2496,-2.2498,-2.2501,-2.2604,-2.2911,-2.2913,-2.3302,-2.3072,0,0,0,0,0,0,0,0,0,0,-2.2774,-2.2673,-2.2498,-2.2501,-2.2606,-2.2911,-2.2913,-2.3061,-2.3087,-2.316,0,-2.3219,0,-2.3269,-2.3332,-2.3334,0,0,0,-2.2611,-2.2651,-2.2741,-2.2502,-2.2609,-2.291,-2.2775,-2.3075,-2.3104,-2.3194,-2.3225,-2.3239,-2.3275,-2.3335,-2.3337,-2.3726,-2.3727,0,0,-2.2594,-2.2549,-2.2721,-2.2759,-2.2705,-2.2765,-2.2784,-2.3093,-2.3126,-2.3226,-2.3249,-2.3282,-2.3337,-2.334,-2.3724,-2.3726,0,0,0,-2.254,-2.2537,-2.262,-2.2743,-2.2798,-2.2773,-2.2796,-2.3112,-2.3142,-2.3253,-2.3286,-2.334,-2.3344,-2.3723,-2.3725,-2.3751,0,0,0,-2.253,-2.2506,-2.2612,-2.2588,-2.2792,-2.2958,-2.2808,-2.3121,-2.3157,-2.3284,-2.334,-2.3348,-2.3721,-2.3724,-2.3747,-2.3772,0,0,0,-2.248,-2.25,-2.2541,-2.2585,-2.2715,-2.2954,-2.3002,-2.313,-2.3177,-2.3334,-2.3349,-2.372,-2.3723,-2.3744,-2.3766,-2.386,0,0,0,-2.2415,-2.2563,-2.2541,-2.272,-2.2712,-2.2966,-2.3001,-2.3194,-2.3332,-2.3342,-2.3721,-2.3725,-2.3742,-2.3762,-2.3856,-2.393,-2.3957,0,0,-2.2577,-2.2581,-2.269,-2.2679,-2.2925,-2.2923,-2.3176,-2.3347,-2.3406,-2.3617,-2.3627,-2.3749,-2.3765,-2.3859,-2.4124,-2.4145,0,0,0,-2.2727,-2.2805,-2.288,-2.3006,-2.3137,-2.3253,-2.3389,-2.3453,-2.3634,-2.3503,-2.381,-2.3822,-2.3879,-2.3916,-2.3934,-2.3986,-2.374,-2.374,-2.374,-2.2893,-2.2957,-2.3142,-2.3243,-2.3366,-2.3505,-2.3612,-2.3723,-2.3754,-2.3825,-2.3888,-2.404,-2.4083,-2.4096,-2.415,-2.3934,-2.3934,-2.3934,-2.3934,-2.3137,-2.3257,-2.3292,-2.3484,-2.3553,-2.3717,-2.3859,-2.3875,-2.4041,-2.3998,-2.4052,-2.3998,-2.4117,-2.4167,-2.3937,-2.3936,-2.3936,-2.3936,-2.3935,-2.3251,-2.332,-2.3392,-2.3582,-2.3723,-2.3824,-2.398,-2.4038,-2.4095,-2.4148,-2.4221,-2.4221,-2.4227,-2.4179,-2.4179,-2.418,-2.418,-2.4181,-2.4181,-2.3341,-2.3422,-2.3544,-2.3696,-2.3785,-2.3911,-2.4054,-2.4146,-2.4263,-2.4294,-2.4294,-2.4318,-2.4116,-2.4063,-2.419,-2.4188,-2.4187,-2.4186,-2.4186,-2.3561,-2.3521,-2.3708,-2.3797,-2.3982,-2.4119,-2.4192,-2.4374,-2.4459,-2.4535,-2.4549,-2.439,-2.4399,-2.4386,-2.4342,-2.4534,-2.4534,-2.4534,-2.4534,-2.3657,-2.3667,-2.3872,-2.4011,-2.4155,-2.424,-2.4455,-2.457,-2.4682,-2.474,-2.4722,-2.467,-2.4653,-2.4673,-2.4653,-2.4613,-2.4869,-2.487,-2.487,-2.3796,-2.3823,-2.3991,-2.4096,-2.4246,-2.4374,-2.4579,-2.4742,-2.4863,-2.4885,-2.4786,-2.4772,-2.4689,-2.4659,-2.4676,-2.4644,-2.4573,0,0]},{"header":{"parameterUnit":"m.s-1","parameterCategory":1,"la1":30.2992,"la2":30.254,"lo1":-89.0895,"lo2":-89.0443,"dy":0.0025,"dx":0.0025,"nx":19,"ny":19,"refTime":"2026-05-21T09:00:00:Z","depth":0,"parameterNumber":3,"parameterNumberName":"V-component_of_WINDS"},"data":[0,0,0,1.8317,1.8316,1.8267,1.8267,1.8234,1.8234,0,0,0,0,0,0,0,0,0,0,0,1.8348,1.8348,1.8317,1.8316,1.8267,1.8267,1.8234,1.8234,0,0,0,0,0,0,0,0,0,0,0,1.8348,1.8348,1.8349,1.8316,1.8267,1.8267,1.8234,1.8261,0,0,0,0,0,0,0,0,0,0,1.8303,1.8348,1.8348,1.8349,1.8316,1.8267,1.8267,1.8261,1.8259,1.8268,0,1.828,0,1.8256,1.8233,1.8233,0,0,0,1.8304,1.835,1.8322,1.8349,1.8316,1.8267,1.8286,1.826,1.8257,1.8265,1.8279,1.8277,1.8256,1.8233,1.8233,1.8325,1.8326,0,0,1.8307,1.8348,1.8324,1.8321,1.8329,1.8288,1.8285,1.8258,1.8276,1.8279,1.8276,1.8255,1.8233,1.8233,1.8324,1.8325,0,0,0,1.8323,1.8351,1.8322,1.8323,1.8312,1.8286,1.8283,1.8277,1.8264,1.8275,1.8255,1.8233,1.8233,1.8322,1.8324,1.8412,0,0,0,1.8324,1.836,1.8324,1.8349,1.8313,1.8293,1.8304,1.8266,1.8262,1.8255,1.8233,1.8233,1.8321,1.8323,1.8407,1.8447,0,0,0,1.8346,1.8362,1.8361,1.8352,1.8332,1.8293,1.8278,1.8264,1.825,1.8233,1.8233,1.8321,1.8323,1.8403,1.844,1.8482,0,0,0,1.8381,1.8441,1.8363,1.8422,1.8333,1.8348,1.8278,1.8287,1.8284,1.8233,1.8321,1.8324,1.8402,1.8435,1.8478,1.8525,1.8549,0,0,1.8479,1.8454,1.8485,1.8414,1.8454,1.8352,1.8405,1.8363,1.8324,1.8327,1.8329,1.8409,1.8439,1.8482,1.8669,1.8689,0,0,0,1.853,1.8553,1.8555,1.8553,1.8521,1.8498,1.8443,1.8428,1.8428,1.8334,1.8435,1.8452,1.8475,1.8496,1.8512,1.8529,1.8335,1.8335,1.8335,1.8728,1.8675,1.8723,1.8664,1.8663,1.8607,1.8601,1.8571,1.8518,1.8543,1.8543,1.8664,1.8689,1.8701,1.872,1.8565,1.8565,1.8565,1.8566,1.8866,1.889,1.8818,1.8839,1.8783,1.8801,1.875,1.8712,1.8721,1.8659,1.8677,1.8613,1.8724,1.8737,1.8572,1.8571,1.857,1.8569,1.8569,1.8989,1.8991,1.8971,1.8962,1.8962,1.8902,1.8913,1.8862,1.8815,1.8833,1.8827,1.8826,1.8817,1.8834,1.8834,1.8835,1.8835,1.8835,1.8836,1.9123,1.9097,1.9113,1.9086,1.9078,1.9061,1.9006,1.8998,1.8975,1.8938,1.8937,1.8882,1.8745,1.8711,1.8842,1.8841,1.884,1.8839,1.8839,1.928,1.9237,1.9261,1.9253,1.9217,1.9221,1.9156,1.9144,1.913,1.9137,1.9079,1.8986,1.8957,1.8943,1.8915,1.909,1.909,1.909,1.909,1.9383,1.9363,1.9376,1.9367,1.9353,1.9297,1.9327,1.9287,1.9237,1.9226,1.9193,1.9152,1.9141,1.9118,1.91,1.9073,1.9285,1.9285,1.9285,1.9476,1.9453,1.9487,1.9437,1.9406,1.9381,1.9408,1.9402,1.9338,1.9292,1.9216,1.9207,1.9139,1.912,1.9071,1.9046,1.8994,0,0]}]]